Location: Daerah Kuala Lumpur
(3.1167°N, 101.6833°E)
Time: 13:23:45
(UTC+00:00)

CZ-4C R/B - Pass Details

Date: 20 November 2024
Orbit: 515 x 1473 km, 63.4° (Epoch: 02 December)

Event Time Altitude Azimuth Distance (km) Brightness Sun altitude
Rises 11:23:26 0° 343° (NNW) 4,351 5.9 -6.8°
Reaches altitude 10° 11:26:15 10° 345° (NNW) 3,460 5.3 -7.5°
Maximum altitude 11:35:00 69° 68° (ENE) 1,558 3.3 -9.5°
Drops below altitude 10° 11:43:58 10° 149° (SSE) 3,537 5.3 -11.6°
Sets 11:46:51 0° 151° (SSE) 4,452 5.8 -12.3°
